| time (UTC) | temp F | wind direction | speed knots | gust knots | rain 1hr in | rain 24hr in | rain mn in | humidity % | barometer mb |
| 20260503192807 | 63 | 243 | 1.7 | 3.5 | 0.00 | 0.00 | 0.00 | 58 | 1013.5 |
| 20260503192307 | 64 | 197 | 1.7 | 2.6 | 0.00 | 0.00 | 0.00 | 56 | 1013.6 |
| 20260503191807 | 64 | 262 | 0.9 | 2.6 | 0.00 | 0.00 | 0.00 | 58 | 1013.6 |
| 20260503191311 | 64 | 200 | 1.7 | 2.6 | 0.00 | 0.00 | 0.00 | 56 | 1013.6 |
| 20260503190811 | 63 | 74 | 0.9 | 2.6 | 0.00 | 0.00 | 0.00 | 57 | 1013.6 |
| 20260503190307 | 63 | 319 | 0.9 | 2.6 | 0.00 | 0.00 | 0.00 | 59 | 1013.7 |
| 20260503185336 | 63 | 33 | 0.9 | 1.7 | 0.00 | 0.00 | 0.00 | 60 | 1013.7 |
| 20260503184807 | 63 | 14 | 1.7 | 3.5 | 0.00 | 0.00 | 0.00 | 61 | 1013.7 |
| 20260503184308 | 63 | 340 | 1.7 | 3.5 | 0.00 | 0.00 | 0.00 | 58 | 1013.7 |
| 20260503183808 | 62 | 86 | 1.7 | 2.6 | 0.00 | 0.00 | 0.00 | 59 | 1013.7 |
| 20260503183307 | 62 | 129 | 1.7 | 3.5 | 0.00 | 0.00 | 0.00 | 59 | 1013.8 |
| 20260503182807 | 62 | 97 | 1.7 | 5.2 | 0.00 | 0.00 | 0.00 | 60 | 1013.8 |
| 20260503182307 | 61 | 201 | 1.7 | 2.6 | 0.00 | 0.00 | 0.00 | 61 | 1013.8 |
| 20260503181807 | 61 | 169 | 0.9 | 1.7 | 0.00 | 0.00 | 0.00 | 62 | 1013.8 |
| 20260503181307 | 61 | 279 | 0.9 | 1.7 | 0.00 | 0.00 | 0.00 | 63 | 1013.8 |
| 20260503180807 | 61 | 60 | 1.7 | 3.5 | 0.00 | 0.00 | 0.00 | 63 | 1013.8 |
| 20260503180307 | 61 | 339 | 1.7 | 2.6 | 0.00 | 0.00 | 0.00 | 65 | 1013.8 |
| 20260503175808 | 61 | 307 | 0.9 | 1.7 | 0.00 | 0.00 | 0.00 | 65 | 1013.8 |
| 20260503175307 | 60 | 321 | 1.7 | 2.6 | 0.00 | 0.00 | 0.00 | 66 | 1013.8 |
| 20260503174807 | 60 | 21 | 0.9 | 1.7 | 0.00 | 0.00 | 0.00 | 66 | 1013.7 |
| 20260503174307 | 60 | 330 | 1.7 | 1.7 | 0.00 | 0.00 | 0.00 | 67 | 1013.8 |
| 20260503173807 | 59 | 270 | 0.9 | 1.7 | 0.00 | 0.00 | 0.00 | 68 | 1013.8 |
| 20260503173307 | 59 | 262 | 1.7 | 2.6 | 0.00 | 0.00 | 0.00 | 69 | 1013.8 |
| 20260503172808 | 59 | 263 | 0.0 | 0.9 | 0.00 | 0.00 | 0.00 | 70 | 1013.8 |
| 20260503172307 | 58 | 342 | 0.0 | 0.9 | 0.00 | 0.00 | 0.00 | 72 | 1013.8 |
| 20260503171808 | 58 | 201 | 2.6 | 4.3 | 0.00 | 0.00 | 0.00 | 72 | 1013.8 |
| 20260503171307 | 59 | 244 | 1.7 | 2.6 | 0.00 | 0.00 | 0.00 | 73 | 1013.8 |
| 20260503170807 | 59 | 217 | 2.6 | 4.3 | 0.00 | 0.00 | 0.00 | 72 | 1013.8 |
| 20260503170307 | 59 | 219 | 2.6 | 3.5 | 0.00 | 0.00 | 0.00 | 72 | 1013.8 |
| 20260503150808 | 57 | 205 | 0.9 | 0.9 | 0.00 | 0.00 | 0.00 | 71 | 1013.3 |
| 20260503150307 | 57 | 194 | 0.9 | 1.7 | 0.00 | 0.00 | 0.00 | 71 | 1013.3 |
| 20260503140309 | 56 | 329 | 0.0 | 0.0 | 0.00 | 0.00 | 0.00 | 78 | 1012.7 |
| 20260503131308 | 55 | 164 | 0.0 | 1.7 | 0.00 | 0.00 | 0.00 | 80 | 1012.2 |
| 20260503130808 | 55 | 0 | 0.0 | 0.0 | 0.00 | 0.00 | 0.00 | 79 | 1012.1 |
| 20260503130307 | 55 | 302 | 0.9 | 1.7 | 0.00 | 0.00 | 0.00 | 80 | 1012.0 |
| 20260503110808 | 55 | 317 | 0.0 | 1.7 | 0.00 | 0.00 | 0.00 | 79 | 1012.1 |
| 20260503110307 | 55 | 240 | 0.0 | 1.7 | 0.00 | 0.00 | 0.00 | 79 | 1012.1 |
| 20260503090307 | 55 | 293 | 0.9 | 1.7 | 0.00 | 0.00 | 0.00 | 80 | 1012.3 |
| 20260503081307 | 56 | 300 | 2.6 | 4.3 | 0.00 | 0.00 | 0.00 | 78 | 1012.6 |
| 20260503080807 | 56 | 283 | 0.9 | 1.7 | 0.00 | 0.00 | 0.00 | 78 | 1012.7 |
| 20260503080307 | 56 | 292 | 1.7 | 3.5 | 0.00 | 0.00 | 0.00 | 78 | 1012.7 |
| 20260503072807 | 56 | 298 | 1.7 | 2.6 | 0.00 | 0.00 | 0.00 | 78 | 1012.9 |
| 20260503072307 | 56 | 302 | 2.6 | 4.3 | 0.00 | 0.00 | 0.00 | 78 | 1012.8 |
| 20260503071807 | 56 | 255 | 0.9 | 1.7 | 0.00 | 0.00 | 0.00 | 78 | 1012.9 |
| 20260503071307 | 56 | 293 | 0.9 | 2.6 | 0.00 | 0.00 | 0.00 | 77 | 1012.8 |
| 20260503070807 | 56 | 306 | 2.6 | 5.2 | 0.00 | 0.00 | 0.00 | 77 | 1012.8 |
| 20260503070307 | 56 | 305 | 1.7 | 3.5 | 0.00 | 0.00 | 0.00 | 77 | 1012.8 |
| 20260503060308 | 56 | 288 | 2.6 | 3.5 | 0.00 | 0.00 | 0.00 | 77 | 1013.0 |
| 20260503054807 | 56 | 293 | 1.7 | 2.6 | 0.00 | 0.00 | 0.00 | 76 | 1013.1 |
| 20260503054307 | 56 | 262 | 0.9 | 1.7 | 0.00 | 0.00 | 0.00 | 76 | 1013.1 |
| 20260503053807 | 56 | 318 | 1.7 | 3.5 | 0.00 | 0.00 | 0.00 | 76 | 1013.1 |
| 20260503053307 | 56 | 339 | 3.5 | 4.3 | 0.00 | 0.00 | 0.00 | 76 | 1013.1 |
| 20260503052807 | 56 | 262 | 1.7 | 3.5 | 0.00 | 0.00 | 0.00 | 77 | 1013.2 |
| 20260503052307 | 56 | 287 | 2.6 | 3.5 | 0.00 | 0.00 | 0.00 | 77 | 1013.2 |
| 20260503051807 | 56 | 345 | 2.6 | 4.3 | 0.00 | 0.00 | 0.00 | 77 | 1013.2 |
| 20260503051307 | 56 | 337 | 0.9 | 2.6 | 0.00 | 0.00 | 0.00 | 77 | 1013.2 |
| 20260503050807 | 56 | 277 | 1.7 | 3.5 | 0.00 | 0.00 | 0.00 | 77 | 1013.2 |
| 20260503050309 | 57 | 304 | 1.7 | 3.5 | 0.00 | 0.00 | 0.00 | 77 | 1013.2 |
| 20260503045807 | 57 | 308 | 0.9 | 2.6 | 0.00 | 0.00 | 0.00 | 76 | 1013.1 |
| 20260503045307 | 57 | 268 | 2.6 | 4.3 | 0.00 | 0.00 | 0.00 | 76 | 1013.1 |
| 20260503044807 | 57 | 288 | 1.7 | 2.6 | 0.00 | 0.00 | 0.00 | 76 | 1013.1 |
| 20260503044307 | 57 | 275 | 1.7 | 3.5 | 0.00 | 0.00 | 0.00 | 76 | 1013.0 |
| 20260503043807 | 57 | 301 | 2.6 | 4.3 | 0.00 | 0.00 | 0.00 | 76 | 1012.9 |
| 20260503043307 | 57 | 288 | 1.7 | 4.3 | 0.00 | 0.00 | 0.00 | 75 | 1012.9 |
| 20260503042807 | 57 | 288 | 1.7 | 2.6 | 0.00 | 0.00 | 0.00 | 76 | 1012.9 |
| 20260503042308 | 57 | 273 | 2.6 | 4.3 | 0.00 | 0.00 | 0.00 | 75 | 1012.9 |
| 20260503041807 | 57 | 295 | 2.6 | 5.2 | 0.00 | 0.00 | 0.00 | 75 | 1012.8 |
| 20260503041308 | 57 | 293 | 1.7 | 2.6 | 0.00 | 0.00 | 0.00 | 75 | 1012.8 |
| 20260503040807 | 57 | 312 | 3.5 | 7.0 | 0.00 | 0.00 | 0.00 | 75 | 1012.8 |
| 20260503040307 | 57 | 306 | 1.7 | 3.5 | 0.00 | 0.00 | 0.00 | 75 | 1012.7 |
| 20260503035807 | 57 | 310 | 3.5 | 5.2 | 0.00 | 0.00 | 0.00 | 75 | 1012.6 |
| 20260503035307 | 57 | 308 | 2.6 | 5.2 | 0.00 | 0.00 | 0.00 | 75 | 1012.6 |
| 20260503034807 | 57 | 298 | 3.5 | 6.1 | 0.00 | 0.00 | 0.00 | 75 | 1012.5 |
| 20260503034307 | 57 | 331 | 3.5 | 5.2 | 0.00 | 0.00 | 0.00 | 75 | 1012.5 |
| 20260503033808 | 57 | 322 | 2.6 | 5.2 | 0.00 | 0.00 | 0.00 | 74 | 1012.5 |
| 20260503033307 | 57 | 335 | 2.6 | 4.3 | 0.00 | 0.00 | 0.00 | 74 | 1012.3 |
| 20260503032807 | 57 | 352 | 2.6 | 4.3 | 0.00 | 0.00 | 0.00 | 74 | 1012.3 |
| 20260503032307 | 57 | 347 | 3.5 | 7.0 | 0.00 | 0.00 | 0.00 | 73 | 1012.3 |
| 20260503031807 | 58 | 0 | 5.2 | 8.7 | 0.00 | 0.00 | 0.00 | 73 | 1012.3 |
| 20260503031307 | 58 | 332 | 2.6 | 4.3 | 0.00 | 0.00 | 0.00 | 73 | 1012.2 |
| 20260503030807 | 58 | 337 | 2.6 | 4.3 | 0.00 | 0.00 | 0.00 | 72 | 1012.2 |
| 20260503030307 | 58 | 332 | 2.6 | 4.3 | 0.00 | 0.00 | 0.00 | 72 | 1012.1 |
| 20260503025807 | 58 | 353 | 2.6 | 5.2 | 0.00 | 0.00 | 0.00 | 71 | 1012.0 |
| 20260503025307 | 58 | 341 | 1.7 | 3.5 | 0.00 | 0.00 | 0.00 | 71 | 1012.0 |
| 20260503024807 | 58 | 345 | 1.7 | 4.3 | 0.00 | 0.00 | 0.00 | 71 | 1011.9 |
| 20260503024307 | 59 | 304 | 1.7 | 4.3 | 0.00 | 0.00 | 0.00 | 73 | 1011.8 |
| 20260503023807 | 59 | 303 | 1.7 | 2.6 | 0.00 | 0.00 | 0.00 | 74 | 1011.8 |
| 20260503023307 | 59 | 300 | 1.7 | 4.3 | 0.00 | 0.00 | 0.00 | 74 | 1011.8 |
| 20260503022807 | 59 | 301 | 3.5 | 5.2 | 0.00 | 0.00 | 0.00 | 74 | 1011.7 |
| 20260503022307 | 59 | 344 | 4.3 | 7.8 | 0.00 | 0.00 | 0.00 | 73 | 1011.6 |
| 20260503021807 | 59 | 298 | 2.6 | 5.2 | 0.00 | 0.00 | 0.00 | 73 | 1011.7 |
| 20260503021307 | 60 | 331 | 3.5 | 6.1 | 0.00 | 0.00 | 0.00 | 72 | 1011.7 |
| 20260503020814 | 60 | 308 | 1.7 | 3.5 | 0.00 | 0.00 | 0.00 | 72 | 1011.7 |
| 20260503020307 | 60 | 330 | 3.5 | 4.3 | 0.00 | 0.00 | 0.00 | 72 | 1011.7 |
| 20260503015807 | 61 | 327 | 1.7 | 3.5 | 0.00 | 0.00 | 0.00 | 71 | 1011.7 |
| 20260503015307 | 61 | 302 | 2.6 | 5.2 | 0.00 | 0.00 | 0.00 | 71 | 1011.7 |
| 20260503014807 | 61 | 304 | 1.7 | 3.5 | 0.00 | 0.00 | 0.00 | 71 | 1011.7 |
| 20260503014307 | 62 | 283 | 2.6 | 5.2 | 0.00 | 0.00 | 0.00 | 70 | 1011.7 |
| 20260503013808 | 62 | 325 | 3.5 | 5.2 | 0.00 | 0.00 | 0.00 | 70 | 1011.7 |
| 20260503013307 | 62 | 309 | 1.7 | 3.5 | 0.00 | 0.00 | 0.00 | 69 | 1011.7 |
| 20260503012808 | 62 | 319 | 2.6 | 3.5 | 0.00 | 0.00 | 0.00 | 69 | 1011.8 |
| 20260503012307 | 63 | 328 | 3.5 | 6.1 | 0.00 | 0.00 | 0.00 | 69 | 1011.7 |
| 20260503011807 | 63 | 337 | 1.7 | 3.5 | 0.00 | 0.00 | 0.00 | 68 | 1011.7 |
| 20260503011308 | 63 | 331 | 3.5 | 6.1 | 0.00 | 0.00 | 0.00 | 68 | 1011.7 |
| 20260503010807 | 64 | 318 | 3.5 | 5.2 | 0.00 | 0.00 | 0.00 | 67 | 1011.7 |
| 20260503010307 | 64 | 332 | 0.0 | 1.7 | 0.00 | 0.00 | 0.00 | 67 | 1011.6 |
| 20260503005808 | 64 | 341 | 3.5 | 6.1 | 0.00 | 0.00 | 0.00 | 67 | 1011.7 |
| 20260503005307 | 64 | 310 | 2.6 | 5.2 | 0.00 | 0.00 | 0.00 | 66 | 1011.7 |
| 20260503004808 | 64 | 322 | 0.9 | 1.7 | 0.00 | 0.00 | 0.00 | 67 | 1011.7 |
| 20260503004307 | 64 | 317 | 1.7 | 2.6 | 0.00 | 0.00 | 0.00 | 67 | 1011.7 |
| 20260503003807 | 65 | 339 | 3.5 | 5.2 | 0.00 | 0.00 | 0.00 | 66 | 1011.7 |
| 20260503003307 | 65 | 353 | 2.6 | 5.2 | 0.00 | 0.00 | 0.00 | 64 | 1011.7 |
| 20260503002807 | 64 | 307 | 3.5 | 7.0 | 0.00 | 0.00 | 0.00 | 65 | 1011.7 |
| 20260503002307 | 64 | 359 | 3.5 | 6.1 | 0.00 | 0.00 | 0.00 | 66 | 1011.8 |
| 20260503001808 | 65 | 339 | 3.5 | 6.1 | 0.00 | 0.00 | 0.00 | 64 | 1011.8 |
| 20260503001307 | 65 | 321 | 4.3 | 7.0 | 0.00 | 0.00 | 0.00 | 65 | 1011.8 |
| 20260503000807 | 65 | 15 | 6.1 | 8.7 | 0.00 | 0.00 | 0.00 | 64 | 1011.8 |
| 20260503000307 | 65 | 356 | 1.7 | 5.2 | 0.00 | 0.00 | 0.00 | 64 | 1011.8 |
| 20260502235807 | 65 | 357 | 3.5 | 6.1 | 0.00 | 0.00 | 0.00 | 64 | 1011.8 |
| 20260502235307 | 65 | 340 | 3.5 | 4.3 | 0.00 | 0.00 | 0.00 | 64 | 1011.8 |
| 20260502234807 | 66 | 333 | 4.3 | 6.1 | 0.00 | 0.00 | 0.00 | 62 | 1011.8 |
| 20260502234307 | 66 | 357 | 4.3 | 6.1 | 0.00 | 0.00 | 0.00 | 63 | 1011.8 |
| 20260502233807 | 66 | 324 | 3.5 | 6.1 | 0.00 | 0.00 | 0.00 | 63 | 1011.9 |
| 20260502233307 | 65 | 348 | 3.5 | 6.1 | 0.00 | 0.00 | 0.00 | 63 | 1012.0 |
| 20260502232807 | 65 | 359 | 4.3 | 7.0 | 0.00 | 0.00 | 0.00 | 64 | 1012.0 |
| 20260502232307 | 64 | 21 | 4.3 | 5.2 | 0.00 | 0.00 | 0.00 | 66 | 1012.1 |
| 20260502231807 | 64 | 1 | 6.1 | 10.4 | 0.00 | 0.00 | 0.00 | 66 | 1012.1 |
| 20260502231308 | 65 | 349 | 5.2 | 9.6 | 0.00 | 0.00 | 0.00 | 67 | 1012.2 |
| 20260502230807 | 65 | 11 | 6.1 | 11.3 | 0.00 | 0.00 | 0.00 | 65 | 1012.1 |
| 20260502230307 | 65 | 341 | 5.2 | 9.6 | 0.00 | 0.00 | 0.00 | 65 | 1012.3 |
| 20260502225807 | 65 | 9 | 6.1 | 9.6 | 0.00 | 0.00 | 0.00 | 64 | 1012.4 |
| 20260502225307 | 65 | 325 | 5.2 | 7.8 | 0.00 | 0.00 | 0.00 | 64 | 1012.4 |
| 20260502224807 | 65 | 346 | 3.5 | 6.1 | 0.00 | 0.00 | 0.00 | 65 | 1012.5 |
| 20260502224307 | 65 | 8 | 6.1 | 8.7 | 0.00 | 0.00 | 0.00 | 65 | 1012.6 |
| 20260502223807 | 65 | 349 | 5.2 | 8.7 | 0.00 | 0.00 | 0.00 | 65 | 1012.6 |
| 20260502223308 | 65 | 339 | 5.2 | 7.8 | 0.00 | 0.00 | 0.00 | 64 | 1012.7 |
| 20260502222807 | 65 | 353 | 3.5 | 5.2 | 0.00 | 0.00 | 0.00 | 65 | 1012.7 |
| 20260502222307 | 65 | 17 | 4.3 | 7.8 | 0.00 | 0.00 | 0.00 | 65 | 1012.8 |
| 20260502221807 | 65 | 0 | 6.1 | 8.7 | 0.00 | 0.00 | 0.00 | 64 | 1012.9 |
| 20260502221309 | 65 | 331 | 4.3 | 7.0 | 0.00 | 0.00 | 0.00 | 64 | 1013.0 |
| 20260502220807 | 66 | 28 | 5.2 | 7.8 | 0.00 | 0.00 | 0.00 | 64 | 1013.0 |
| 20260502220307 | 65 | 10 | 5.2 | 11.3 | 0.00 | 0.00 | 0.00 | 65 | 1013.1 |
| 20260502215808 | 65 | 13 | 4.3 | 7.8 | 0.00 | 0.00 | 0.00 | 65 | 1013.1 |
| 20260502215307 | 65 | 344 | 5.2 | 7.8 | 0.00 | 0.00 | 0.00 | 65 | 1013.2 |
| 20260502214807 | 65 | 338 | 5.2 | 7.0 | 0.00 | 0.00 | 0.00 | 67 | 1013.3 |
| 20260502214307 | 65 | 348 | 4.3 | 7.8 | 0.00 | 0.00 | 0.00 | 65 | 1013.3 |
| 20260502213807 | 65 | 38 | 3.5 | 6.1 | 0.00 | 0.00 | 0.00 | 67 | 1013.3 |
| 20260502213307 | 65 | 351 | 3.5 | 4.3 | 0.00 | 0.00 | 0.00 | 67 | 1013.4 |
| 20260502212807 | 65 | 18 | 4.3 | 7.8 | 0.00 | 0.00 | 0.00 | 66 | 1013.3 |
| 20260502212308 | 65 | 17 | 3.5 | 7.0 | 0.00 | 0.00 | 0.00 | 68 | 1013.4 |
| 20260502211808 | 65 | 42 | 7.0 | 10.4 | 0.00 | 0.00 | 0.00 | 68 | 1013.5 |
| 20260502211307 | 65 | 14 | 4.3 | 6.1 | 0.00 | 0.00 | 0.00 | 67 | 1013.5 |
| 20260502210809 | 66 | 358 | 6.1 | 8.7 | 0.00 | 0.00 | 0.00 | 65 | 1013.5 |
| 20260502210307 | 65 | 32 | 5.2 | 7.8 | 0.00 | 0.00 | 0.00 | 65 | 1013.5 |
| 20260502205807 | 65 | 338 | 1.7 | 2.6 | 0.00 | 0.00 | 0.00 | 67 | 1013.6 |
| 20260502205309 | 65 | 7 | 1.7 | 3.5 | 0.00 | 0.00 | 0.00 | 68 | 1013.7 |
| 20260502204807 | 65 | 44 | 4.3 | 7.0 | 0.00 | 0.00 | 0.00 | 66 | 1013.8 |
| 20260502204307 | 65 | 330 | 3.5 | 5.2 | 0.00 | 0.00 | 0.00 | 66 | 1013.8 |
| 20260502203807 | 65 | 6 | 1.7 | 4.3 | 0.00 | 0.00 | 0.00 | 67 | 1013.8 |
| 20260502203308 | 65 | 34 | 3.5 | 7.8 | 0.00 | 0.00 | 0.00 | 67 | 1013.8 |
| 20260502202807 | 65 | 308 | 0.9 | 1.7 | 0.00 | 0.00 | 0.00 | 67 | 1013.9 |
| 20260502202307 | 64 | 1 | 3.5 | 4.3 | 0.00 | 0.00 | 0.00 | 67 | 1013.9 |
| 20260502201807 | 64 | 38 | 3.5 | 7.0 | 0.00 | 0.00 | 0.00 | 67 | 1014.1 |
| 20260502201307 | 64 | 65 | 3.5 | 4.3 | 0.00 | 0.00 | 0.00 | 68 | 1014.1 |
| 20260502200807 | 64 | 354 | 3.5 | 5.2 | 0.00 | 0.00 | 0.00 | 67 | 1014.1 |
| 20260502200307 | 64 | 19 | 3.5 | 5.2 | 0.00 | 0.00 | 0.00 | 68 | 1014.2 |
| 20260502195807 | 64 | 30 | 3.5 | 7.0 | 0.00 | 0.00 | 0.00 | 67 | 1014.2 |
| 20260502195307 | 64 | 319 | 1.7 | 2.6 | 0.00 | 0.00 | 0.00 | 69 | 1014.3 |
| 20260502194807 | 64 | 336 | 2.6 | 3.5 | 0.00 | 0.00 | 0.00 | 68 | 1014.3 |
| 20260502194308 | 63 | 311 | 0.0 | 0.9 | 0.00 | 0.00 | 0.00 | 69 | 1014.3 |
| 20260502193808 | 64 | 31 | 3.5 | 4.3 | 0.00 | 0.00 | 0.00 | 68 | 1014.4 |
| 20260502193307 | 63 | 308 | 1.7 | 2.6 | 0.00 | 0.00 | 0.00 | 70 | 1014.4 |